Regional Weather Roundup
Issued by NWS Columbia, SC

Home | Current Version | Previous Version | Text Only | Print | Product List | Glossary On
Versions: 1 2 3 4 5 6 7 8 9 10 11 12 13 14 15 16 17 18 19 20 21 22 23 24 25 26 27 28 29 30 31 32 33 34 35 36 37 38 39 40 41 42 43 44 45 46 47 48 49 50
000
ASUS42 KCAE 190610
RWRCAE
REGIONAL WEATHER ROUNDUP
NATIONAL WEATHER SERVICE COLUMBIA SC
200 AM EDT FRI SEP 19 2014

NOTE: "FAIR" INDICATES FEW OR NO CLOUDS BELOW 12,000 FEET WITH NO
SIGNIFICANT WEATHER AND/OR OBSTRUCTIONS TO VISIBILITY.

NOT ALL STATIONS ARE QUALITY CONTROLLED BY THE NATIONAL
WEATHER SERVICE. USE DATA WITH CAUTION...ESPECIALLY
DEWPOINT OBSERVATIONS.

SCZ001>056-GAZ040-063>065-077-190700-
...UPSTATE SOUTH CAROLINA...

CITY           SKY/WX    TMP DP  RH WIND       PRES   REMARKS
ANDERSON       PTCLDY    68  65  90 NE3       30.03S
6HR MIN TEMP:  68; 6HR MAX TEMP:  74;

LIBERTY        CLOUDY    68  66  95 MISG      30.04R
6HR MIN TEMP:  61; 6HR MAX TEMP:  81;

SPARTANBURG    FAIR      68  68 100 N5        30.04S
CLEMSON        MOCLDY    70  64  81 N3        30.05S
6HR MIN TEMP:  69; 6HR MAX TEMP:  76;

GREENVILLE     PTCLDY    67  64  90 N7        30.05S
6HR MIN TEMP:  67; 6HR MAX TEMP:  75;

GREENWOOD      PTCLDY    67  64  90 CALM      30.04S
6HR MIN TEMP:  66; 6HR MAX TEMP:  72;

GREER          CLEAR     67  64  90 NE5       30.04R
6HR MIN TEMP:  67; 6HR MAX TEMP:  72;

ROCK HILL      MOCLDY    67  66  97 CALM      30.06R FOG
6HR MIN TEMP:  67; 6HR MAX TEMP:  71; 6HR PCP:  0.12;

CHESTER        CLOUDY    70  68  94 NE3       30.09R
LAURENS        FAIR      63 N/A N/A N3        30.04S HAZE


...CENTRAL SOUTH CAROLINA...

CITY           SKY/WX    TMP DP  RH WIND       PRES   REMARKS
COLUMBIA APT   PTCLDY    71  67  87 NE3       30.01R
6HR MIN TEMP:  70; 6HR MAX TEMP:  78;

COLUMBIA OWENS MOCLDY    72  68  87 CALM      30.03R
6HR MIN TEMP:  71; 6HR MAX TEMP:  75;

DARLINGTON     MOCLDY    70  63  78 E5        30.04S
6HR MIN TEMP:  70; 6HR MAX TEMP:  73;

FLORENCE       PTCLDY    69  64  84 E6        30.02S
6HR MIN TEMP:  69; 6HR MAX TEMP:  76;

MCENTIRE ANGB  PTCLDY    68  68  99 E5        30.02R
6HR MIN TEMP:  67; 6HR MAX TEMP:  71;

ORANGEBURG     CLEAR     70  67  90 CALM      30.01S
6HR MIN TEMP:  70; 6HR MAX TEMP:  75;

SUMTER SHAW    PTCLDY    68  64  87 NE8       30.01R
6HR MIN TEMP:  68; 6HR MAX TEMP:  74;

NEWBERRY       MOCLDY    68  68 100 NE5       30.05S
AIKEN          FAIR      68  68 100 CALM      30.05R
BARNWELL       FAIR      70  70 100 CALM      30.01R
MANNING        FAIR      70 N/A N/A CALM      30.01R
CAMDEN         FAIR      70  66  88 SE5       30.04R
LANCASTER      LGT RAIN  68  68 100 CALM      30.04S
WINNSBORO      FAIR      68  68 100 E3        30.03R


...EASTERN AND COASTAL SOUTH CAROLINA...

CITY           SKY/WX    TMP DP  RH WIND       PRES   REMARKS
MYRTLE BEACH   PTCLDY    77  64  65 E14G20    30.01S
6HR MIN TEMP:  77; 6HR MAX TEMP:  79;

N MYRTLE BCH   CLEAR     70  64  81 NE6       30.02R
6HR MIN TEMP:  69; 6HR MAX TEMP:  77;

CONWAY         FAIR      68  64  88 NE3       30.03R
MARION         FAIR      68  63  83 E5        30.03S
HARTSVILLE     MOCLDY    70  63  78 E6        30.04S
FLORENCE       PTCLDY    69  64  84 E6        30.02S
6HR MIN TEMP:  69; 6HR MAX TEMP:  76;

DARLINGTON     MOCLDY    70  63  78 E5        30.04S
6HR MIN TEMP:  70; 6HR MAX TEMP:  73;

CHARLESTON APT PTCLDY    73  69  87 CALM      29.99S
6HR MIN TEMP:  73; 6HR MAX TEMP:  76;

MOUNT PLEASANT FAIR      72  72 100 CALM      29.99S
WALTERBORO     PTCLDY    70 N/A N/A CALM      30.00S
BEAUFORT       PTCLDY    73  71  93 CALM      29.98S
6HR MIN TEMP:  71; 6HR MAX TEMP:  74;



...EASTERN GEORGIA...

CITY           SKY/WX    TMP DP  RH WIND       PRES   REMARKS
AUGUSTA BUSH F PTCLDY    66  66 100 CALM      29.99F FOG
6HR MIN TEMP:  66; 6HR MAX TEMP:  73;

AUGUSTA DANIEL PTCLDY    72  67  84 CALM      30.01S
6HR MIN TEMP:  72; 6HR MAX TEMP:  77;

THOMSON        PTCLDY    69  69 100 CALM      30.06S
6HR MIN TEMP:  69; 6HR MAX TEMP:  75;

WASHINGTON     FAIR      68  68 100 E3        30.02S
CLAXTON        FAIR     N/A N/A N/A CALM      29.98S HAZE
SYLVANIA       DRIZZLE   74  72  93 E5        30.00F
6HR MIN TEMP:  74; 6HR MAX TEMP:  78;

STATESBORO     PTCLDY    71  71 100 CALM      29.98F
6HR MIN TEMP:  71; 6HR MAX TEMP:  75;

SAVANNAH       PTCLDY    73  68  84 NE5       29.98F
6HR MIN TEMP:  72; 6HR MAX TEMP:  80;



...SOUTHERN NORTH CAROLINA...

CITY           SKY/WX    TMP DP  RH WIND       PRES   REMARKS
CHARLOTTE      CLOUDY    69  64  84 E8        30.06R
6HR MIN TEMP:  69; 6HR MAX TEMP:  75;

MONROE         TSTM      67  65  93 NE3       30.07R FOG
6HR MIN TEMP:  66; 6HR MAX TEMP:  73; 6HR PCP:  1.11;

WADESBORO      LGT RAIN  70  66  87 NE3       30.04F
6HR MIN TEMP:  69; 6HR MAX TEMP:  73;

ROCKINGHAM     CLOUDY    69  64  84 E8        30.04F
6HR MIN TEMP:  69; 6HR MAX TEMP:  73;

RUTHERFORDTON  PTCLDY    64  63  94 NW6       30.08R
6HR MIN TEMP:  64; 6HR MAX TEMP:  72;

ASHEVILLE      PTCLDY    63  61  93 CALM      30.11R
6HR MIN TEMP:  63; 6HR MAX TEMP:  69;


$$


USA.gov is the U.S. government's official web portal to all federal, state and local government web resources and services.